Regional Weather Roundup
Issued by NWS Memphis, TN

Home | Current Version | Previous Version | Text Only | Print | Product List | Glossary On
Versions: 1 2 3 4 5 6 7 8 9 10 11 12 13 14 15 16 17 18 19 20 21 22 23 24 25 26 27 28 29 30 31 32 33 34 35 36 37 38 39 40 41 42 43 44 45 46 47 48 49 50
000
ASUS44 KMEG 021210
RWRMEG
MEMPHIS CWA HOURLY WEATHER ROUNDUP
NATIONAL WEATHER SERVICE MEMPHIS TN
700 AM CDT THU OCT 02 2014

...WEST TENNESSEE...

CITY           SKY/WX    TMP DP  RH WIND       PRES   REMARKS
MEMPHIS INTL   MOCLDY    73  67  81 S9        29.94R
6HR MIN TEMP:  72; 6HR MAX TEMP:  75;

NWS MEMPHIS      N/A     70 N/A N/A MISG        N/A
JACKSON        CLEAR     69  63  81 S6        29.97R
6HR MIN TEMP:  67; 6HR MAX TEMP:  71;

LEXINGTON      CLEAR     63  61  94 CALM      29.98S
SAVANNAH       CLEAR     66  64  94 SE3       30.00R
DYERSBURG      CLEAR     68  54  60 CALM      29.96R
6HR MIN TEMP:  68; 6HR MAX TEMP:  72;

UNION CITY     CLEAR     64  61  88 S5        29.95R
PARIS          CLEAR     64  57  77 S8        29.99R


...EASTERN ARKANSAS...

CITY           SKY/WX    TMP DP  RH WIND       PRES   REMARKS
JONESBORO      PTCLDY    68  66  93 S3        29.90R
6HR MIN TEMP:  68; 6HR MAX TEMP:  71;

WEST MEMPHIS   CLEAR     72  70  93 S12       29.92R
6HR MIN TEMP:  68; 6HR MAX TEMP:  72;

BATESVILLE     CLOUDY   N/A N/A N/A S10G16    29.87S
NEWPORT        MOCLDY    73  70  91 S10       29.89S
6HR MIN TEMP:  69; 6HR MAX TEMP:  74;

WALNUT RIDGE   PTCLDY    70  66  88 S8        29.88S
6HR MIN TEMP:  70; 6HR MAX TEMP:  73;

BLYTHEVILLE    CLEAR     69  65  86 S6        29.93R
6HR MIN TEMP:  69; 6HR MAX TEMP:  72;

SEARCY         CLOUDY    73  71  93 S7        29.90R
6HR MIN TEMP:  70; 6HR MAX TEMP:  73;

STUTTGART      CLOUDY   N/A N/A N/A S9        29.90R
PINE BLUFF     MOCLDY    75  72  90 S8        29.90R
6HR MIN TEMP:  69; 6HR MAX TEMP:  75;

MONTICELLO     MOCLDY    76  73  91 S5        29.91R
6HR MIN TEMP:  74; 6HR MAX TEMP:  76;



...NORTH MISSISSIPPI...

CITY           SKY/WX    TMP DP  RH WIND       PRES   REMARKS
TUPELO         MOCLDY    68  63  84 S3        29.99R
6HR MIN TEMP:  66; 6HR MAX TEMP:  69;

OXFORD         MOCLDY    68  64  88 SE6       29.99R
OLIVE BRANCH   MOCLDY    68  68 100 S7        29.95R
TUNICA         CLOUDY    72  68  88 S9        29.94R
CLARKSDALE     CLOUDY    75  72  88 SE8       29.94R
CORINTH          N/A     63  61  94 SE3       29.99R
GRENADA        CLOUDY    72  68  88 S3        29.97R
GREENWOOD      CLOUDY    73  70  90 S7        29.95R
6HR MIN TEMP:  72; 6HR MAX TEMP:  74;

COLUMBUS       MOCLDY    67  65  91 SE7       30.00R
6HR MIN TEMP:  64; 6HR MAX TEMP:  71;

STARKVILLE     CLOUDY    68  66  94 CALM      29.99R
GOLDEN TRIANGL CLOUDY    68  61  77 SE8       29.99R


...SOUTHEAST MISSOURI...

CITY           SKY/WX    TMP DP  RH WIND       PRES   REMARKS
WEST PLAINS    CLOUDY    69  66  90 S7        29.89R
6HR MIN TEMP:  68; 6HR MAX TEMP:  72;

POPLAR BLUFF   CLEAR     65  61  87 CALM      29.89R
6HR MIN TEMP:  65; 6HR MAX TEMP:  70;

CAPE GIRARDEAU PTCLDY    70  62  76 S8        29.92R
6HR MIN TEMP:  70; 6HR MAX TEMP:  74;



...NORTHWEST ALABAMA...

CITY           SKY/WX    TMP DP  RH WIND       PRES   REMARKS
MUSCLE SHOALS  CLEAR     62  58  86 SE3       30.03R
6HR MIN TEMP:  62; 6HR MAX TEMP:  66;



...MIDDLE TENNESSEE...

CITY           SKY/WX    TMP DP  RH WIND       PRES   REMARKS
NASHVILLE      PTCLDY    65  59  81 S6        30.03R
6HR MIN TEMP:  62; 6HR MAX TEMP:  67;

CLARKSVILLE    CLOUDY    65  60  84 SE6       29.99R
6HR MIN TEMP:  62; 6HR MAX TEMP:  65;

COLUMBIA       CLEAR     61  61 100 CALM      30.02R
LEWISBURG      PTCLDY    62  58  87 CALM      30.04R


...WESTERN KENTUCKY...

CITY           SKY/WX    TMP DP  RH WIND       PRES   REMARKS
PADUCAH        CLOUDY    72  61  68 S7        29.94R
6HR MIN TEMP:  69; 6HR MAX TEMP:  72;

FORT CAMPBELL  MOCLDY    68  61  77 S5        29.99R
6HR MIN TEMP:  65; 6HR MAX TEMP:  69;



...CENTRAL ARKANSAS...

CITY           SKY/WX    TMP DP  RH WIND       PRES   REMARKS
LITTLE ROCK    CLOUDY    76  71  85 SW9       29.89R
6HR MIN TEMP:  73; 6HR MAX TEMP:  76;



SKY/WX REPORTED AS FAIR MEANS FEW OR NO CLOUDS BELOW
12 THOUSAND FEET.



USA.gov is the U.S. government's official web portal to all federal, state and local government web resources and services.